Погода в Бахте

Погода в Бахте : погода сейчас, прогноз погоды и архив. Всё, что Вы хотите узнать о погоде в Бахте!

Поиск расширенной информации на нашем сайте:

Другие новости

Новости СМИ2

Главная страница сайта

Новости сайта

03.07.2017

Напоминаем, что на нашем специализированном сайте Метеоцентр.Азия вы можете получить высокодетализированные автоматические прогнозы погоды по пунктам России, СНГ и мира в авиационном формате (включающие направление и скорость ветра, видимость, явления погоды, количество и форму облачности, нижнюю и верхнюю границу облачности).


Погода в Бахте - сегодня

Время (UTC), дата Ветер
(°,м/с) 
Видим.   Явления Облачность Т
(°С)
Тd
(°С)
f(%) Тe
(°С)
Pmin
(гПа)
dP
(гПа)
Po
(мм)
O2
(г/м3)
Тmin Tmax R s Состояние
почвы
21 15.04.18 тихо ()   н/о  {ливн. осадки}  10/10 600 м кучево-дожд. 
[Cb cap]
-2.7 -3.7 93 -3  994.4  -0.7  741  302           
00 16.04.18 тихо ()   20000 м  {ливн. осадки}  9/9 600 м кучево-дожд. 
[Cb cap]
-4 -5.2 91 -4  995.2  0.7  742  304  -4    0.4  71  равномерный
мокрый или
старый снег
100% 
03 16.04.18 250 (З) 20000 м  {ливн. осадки}  9/9 600 м кучево-дожд. 
[Cb cap]
-2.6 -9.1 61 -4  996.1  743  303           
06 16.04.18 230 (ЮЗ) 20000 м  {ливн. осадки}  8/8 600 м кучево-дожд. 
[Cb cap]
-1.1 -7.7 61 -2  997.8  1.7  744  302           
09 16.04.18 тихо ()   20000 м  {ливн. осадки}  8/8 600 м кучево-дожд. 
[Cb cap]
-0.5 -10.3 47 -1  999.2  1.4  745  302           
12 16.04.18 тихо ()   20000 м  {ливн. осадки}  6/6 600 м кучево-дожд. 
[Cb cap]
-0.4 -10.6 46 -0  1000.1  0.9  746  302    -0.4  0.0     
15 16.04.18 тихо ()   н/о    4/0 верхняя 
[Ci sp]
-3.4 -11.3 54 -3  999.9  -0.3  745  305           
18 16.04.18 тихо ()   н/о    8/0 верхняя 
[Ci sp]
-4 -10.8 59 -4  998.8  -1.1  744  305           
00 17.04.18 020 (С) 20000 м  слаб. снег  10/10 2000 м 
[As trans]
-4.8 -9.2 71 -6  995.3  -2  742  305  -5.3    0.0  71  равномерный
мокрый или
старый снег
100% 
03 17.04.18 050 (СВ) 20000 м  слаб. снег  10/10 2000 м 
[Ns]
-2.2 -9.8 56 -3  993.1  -2.1  740  302           
06 17.04.18 020 (С) 20000 м  {снег}  10/10 2000 м 
[As trans]
+0.3 -10.5 44 -2  992.2  -0.9  740  299           
09 17.04.18 020 (С) 20000 м  слаб. снег  10/10 2000 м 
[Ns]
-0.2 -11.8 41 -4  993.8  1.6  741  300           
12 17.04.18 340 (С) 8{12}  20000 м  позёмок{снег}  10/0 средняя 
[As trans]
-3.8 -14.2 44 -9  997.7  3.8  744  305    +0.3  0.0     
21 17.04.18 270 (З) н/о    10/0 верхняя 
[Ci fib]
-12.9 -20.1 55 -17  1008.3  3.5  751  319           
00 18.04.18 270 (З) 20000 м    1/0 верхняя 
[Ci fib]
-14.9 -20 65 -17  1010.9  2.6  753  323  -14.9      71  равномерный
мокрый или
старый снег
100% 
03 18.04.18 270 (З) 20000 м    6/6 600 м 
[Cu med, cong]
-14 -20.1 60 -16  1013.5  2.5  755  322           
06 18.04.18 270 (З) 20000 м    6/3 600 м верхняя 
[Cu hum|Ci sp]
-11 -18.3 55 -13  1015  1.6  756  319           
09 18.04.18 270 (З) 20000 м    8/0 средняя 
[Ac und]
-8.3 -17.9 46 -10  1016.4  1.4  757  316           
15 18.04.18 тихо ()   н/о    1/0 верхняя 
[Ci sp]
-11.7 -20 50 -12  1017.6  0.4  758  321           
18 18.04.18 тихо ()   н/о    ясно 
-13.8 -22 50 -14  1018.1  0.4  759  324           
21 18.04.18 тихо ()   н/о    ясно 
-16.1 -23.1 55 -16  1018.1  759  326           
00 19.04.18 180 (Ю) 20000 м    ясно 
-18.4 -23.4 65 -21  1018.1  -0.1  759  329  -18.4      71  равномерный
мокрый или
старый снег
100% 
03 19.04.18 180 (Ю) 20000 м    1/0 верхняя 
[Ci fib]
-12.9 -20.1 55 -15  1017.6  -0.4  758  322           
06 19.04.18 180 (Ю) 20000 м    10/0 верхняя 
[Cs]
-5.5 -15.5 45 -9  1015.4  -1.9  757  313           
09 19.04.18 180 (Ю) 20000 м    10/0 верхняя 
[Cs]
-2.4 -15.2 37 -3  1013.4  -1.9  755  308           
Время (UTC), дата Ветер
(°,м/с) 
Видим.   Явления Облачность Т
(°С)
Тd
(°С)
f(%) Тe
(°С)
Pmin
(гПа)
dP
(гПа)
Po
(мм)
O2
(г/м3)
Тmin Tmax R s Состояние
почвы

Для получения пояснительной информации подведите курсор к названию столбца.

ПОГОДА в Бахте - архив

Всё, что Вы хотите узнать о погоде в Бахте - удобно и подробно!

Выберите нужную дату (начиная с 1 января 2015* года) и нажмите кнопку "Найти".
Будут отображены архивные сводки погоды по пункту Бахта, начиная с указанной даты.


Отображать данные в формате CSV (для использования в таблицах Excel)


Внимание! Наш архив погоды предназначен исключительно для личного некоммерческого использования в познавательных целях. Если Вам необходимы официальные справки о состоянии погоды (для производственных, юридических, коммерческих и т.п. целей), обращайтесь в органы Росгидромета.

*Примечание: данная дата относится к архиву по метеостанциям СССР (Россия, СНГ, Балтия).
Архив по метеостанциям Зарубежной Европы и Азии (кроме Китая) хранится 10 дней, по другим регионам земного шара (Китай, Африка, Америка, Австралия, Океания) - 1 день.

Бахта - район местоположения метеостанции


Название, широта, долгота, высота метеостанции:
Бахта 62.3°ш. 89.2°д. 58 м над ур. моря [Российская Федерация]

Дополнительная информация

В oтличие oт бoльшинства пoгoдных сайтoв мы публикуем пoдрoбную метеoинфoрмацию в детальнoм прoфессиoнальнoм фoрмате.

Характеристики температуры и влажнoсти вoздуха измеряются на высoте 2 м в тени вдали oт зданий и деревьев.
Скoрoсть ветра измеряется на высoте 10 м (на урoвне рoста челoвека скoрoсть ветра ниже в 1.5-2 раза). Если метеoстанция нахoдится в гoрoде или в лесу, тo скoрoсть ветра занижена на 2-4 м/с пo сравнению с oткрытым местoм. Скoрoсть ветра над акватoриями крупных рек и oзёр, а также на вершинах хoлмoв на 2-5 м/с выше, чем в oбычных услoвиях.
Атмoсфернoе давление в разных тoчках местнoсти мoжет значительнo oтличаться oт давления на метеoстанции, в зависимoсти oт услoвий рельефа (при пoдъёме на 10 м давление пoнижается примернo на 1 мм рт.ст.).